Time,TemperatureF,DewpointF,PressureIn,WindDirection,WindDirectionDegrees,WindSpeedMPH,WindSpeedGustMPH,Humidity,HourlyPrecipIn,Conditions,Clouds,dailyrainin,SolarRadiationWatts/m^2,SoftwareType,DateUTC
2013-01-19 00:02:00,15.0,8.0,-100.00,South,182,2.0,5.0,73,0.00,,,0.00,0.000000,,2013-01-19 07:02:00,
2013-01-19 00:12:00,15.0,8.0,-100.00,South,182,2.0,5.0,73,0.00,,,0.00,0.000000,,2013-01-19 07:12:00,
2013-01-19 00:33:00,14.0,8.0,-100.00,South,176,1.0,4.0,77,0.00,,,0.00,0.000000,,2013-01-19 07:33:00,
2013-01-19 00:43:00,14.0,8.0,-100.00,South,176,1.0,4.0,77,0.00,,,0.00,0.000000,,2013-01-19 07:43:00,
2013-01-19 00:53:00,14.0,8.0,-100.00,South,176,1.0,4.0,77,0.00,,,0.00,0.000000,,2013-01-19 07:53:00,
2013-01-19 01:02:00,14.0,8.0,-100.00,South,176,1.0,4.0,77,0.00,,,0.00,0.000000,,2013-01-19 08:02:00,
2013-01-19 01:12:00,14.0,8.0,-100.00,South,176,1.0,4.0,77,0.00,,,0.00,0.000000,,2013-01-19 08:12:00,
2013-01-19 01:33:00,13.0,7.0,-100.00,WSW,240,2.0,4.0,77,0.00,,,0.00,0.000000,,2013-01-19 08:33:00,
2013-01-19 01:43:00,13.0,7.0,-100.00,WSW,240,2.0,4.0,77,0.00,,,0.00,0.000000,,2013-01-19 08:43:00,
2013-01-19 01:53:00,13.0,7.0,-100.00,WSW,240,2.0,4.0,77,0.00,,,0.00,0.000000,,2013-01-19 08:53:00,
2013-01-19 02:02:00,13.0,7.0,-100.00,WSW,240,2.0,4.0,77,0.00,,,0.00,0.000000,,2013-01-19 09:02:00,
2013-01-19 02:12:00,13.0,7.0,-100.00,WSW,240,2.0,4.0,77,0.00,,,0.00,0.000000,,2013-01-19 09:12:00,
2013-01-19 02:33:00,12.0,6.0,-100.00,South,182,3.0,5.0,78,0.00,,,0.00,0.000000,,2013-01-19 09:33:00,
2013-01-19 02:43:00,12.0,6.0,-100.00,South,182,3.0,5.0,78,0.00,,,0.00,0.000000,,2013-01-19 09:43:00,
2013-01-19 02:53:00,12.0,6.0,-100.00,South,182,3.0,5.0,78,0.00,,,0.00,0.000000,,2013-01-19 09:53:00,
2013-01-19 03:02:00,12.0,6.0,-100.00,South,182,3.0,5.0,78,0.00,,,0.00,0.000000,,2013-01-19 10:02:00,
2013-01-19 03:12:00,12.0,6.0,-100.00,South,182,3.0,5.0,78,0.00,,,0.00,0.000000,,2013-01-19 10:12:00,
2013-01-19 03:33:00,11.0,5.0,-100.00,SE,146,3.0,5.0,77,0.00,,,0.00,0.000000,,2013-01-19 10:33:00,
2013-01-19 03:43:00,11.0,5.0,-100.00,SE,146,3.0,5.0,77,0.00,,,0.00,0.000000,,2013-01-19 10:43:00,
2013-01-19 03:53:00,11.0,5.0,-100.00,SE,146,3.0,5.0,77,0.00,,,0.00,0.000000,,2013-01-19 10:53:00,
2013-01-19 04:03:00,11.0,5.0,-100.00,SE,146,3.0,5.0,77,0.00,,,0.00,0.000000,,2013-01-19 11:03:00,
2013-01-19 04:12:00,11.0,5.0,-100.00,SE,146,3.0,5.0,77,0.00,,,0.00,0.000000,,2013-01-19 11:12:00,
2013-01-19 05:48:00,9.0,4.0,-100.00,West,264,2.0,6.0,81,0.00,,,0.00,0.000000,,2013-01-19 12:48:00,
2013-01-19 05:53:00,9.0,4.0,-100.00,West,264,2.0,6.0,81,0.00,,,0.00,0.000000,,2013-01-19 12:53:00,
2013-01-19 06:03:00,9.0,4.0,-100.00,West,264,2.0,6.0,81,0.00,,,0.00,0.000000,,2013-01-19 13:03:00,
2013-01-19 06:12:00,9.0,4.0,-100.00,West,264,2.0,6.0,81,0.00,,,0.00,0.000000,,2013-01-19 13:12:00,
2013-01-19 06:34:00,6.0,3.0,-100.00,North,352,4.0,8.0,87,0.00,,,0.00,0.000000,,2013-01-19 13:34:00,
2013-01-19 06:43:00,6.0,3.0,-100.00,North,352,4.0,8.0,87,0.00,,,0.00,0.000000,,2013-01-19 13:43:00,
2013-01-19 06:53:00,6.0,3.0,-100.00,North,352,4.0,8.0,87,0.00,,,0.00,0.000000,,2013-01-19 13:53:00,
2013-01-19 07:02:00,6.0,3.0,-100.00,North,352,4.0,8.0,87,0.00,,,0.00,0.000000,,2013-01-19 14:02:00,
2013-01-19 07:12:00,6.0,3.0,-100.00,North,352,4.0,8.0,87,0.00,,,0.00,0.000000,,2013-01-19 14:12:00,
2013-01-19 07:34:00,6.0,2.0,-100.00,SSW,193,0.0,4.0,85,0.00,,,-99.99,0.000000,,2013-01-19 14:34:00,
2013-01-19 07:43:00,6.0,2.0,-100.00,SSW,193,0.0,4.0,85,0.00,,,-99.99,0.000000,,2013-01-19 14:43:00,
2013-01-19 07:53:00,6.0,2.0,-100.00,SSW,193,0.0,4.0,85,0.00,,,-99.99,0.000000,,2013-01-19 14:53:00,
2013-01-19 08:03:00,6.0,2.0,-100.00,SSW,193,0.0,4.0,85,0.00,,,-99.99,0.000000,,2013-01-19 15:03:00,
2013-01-19 08:12:00,6.0,2.0,-100.00,SSW,193,0.0,4.0,85,0.00,,,-99.99,0.000000,,2013-01-19 15:12:00,
2013-01-19 08:13:00,10.0,5.0,-100.00,WNW,299,3.0,7.0,78,0.00,,,0.00,32.000000,,2013-01-19 15:13:00,
2013-01-19 08:43:00,10.0,5.0,-100.00,WNW,299,3.0,7.0,78,0.00,,,0.00,32.000000,,2013-01-19 15:43:00,
2013-01-19 08:53:00,10.0,5.0,-100.00,WNW,299,3.0,7.0,78,0.00,,,0.00,32.000000,,2013-01-19 15:53:00,
2013-01-19 09:03:00,10.0,5.0,-100.00,WNW,299,3.0,7.0,78,0.00,,,0.00,32.000000,,2013-01-19 16:03:00,
2013-01-19 09:33:00,16.0,6.0,-100.00,NW,316,1.0,6.0,65,0.00,,,0.00,218.000000,,2013-01-19 16:33:00,
2013-01-19 09:43:00,16.0,6.0,-100.00,NW,316,1.0,6.0,65,0.00,,,0.00,218.000000,,2013-01-19 16:43:00,
2013-01-19 09:54:00,16.0,6.0,-100.00,NW,316,1.0,6.0,65,0.00,,,0.00,218.000000,,2013-01-19 16:54:00,
2013-01-19 10:03:00,16.0,6.0,-100.00,NW,316,1.0,6.0,65,0.00,,,0.00,218.000000,,2013-01-19 17:03:00,
2013-01-19 10:13:00,20.0,8.0,-100.00,NNW,345,4.0,9.0,59,0.00,,,0.00,394.000000,,2013-01-19 17:13:00,
2013-01-19 10:38:00,20.0,8.0,-100.00,NNW,345,4.0,9.0,59,0.00,,,0.00,394.000000,,2013-01-19 17:38:00,
2013-01-19 10:50:00,20.0,8.0,-100.00,NNW,345,4.0,9.0,59,0.00,,,0.00,394.000000,,2013-01-19 17:50:00,
2013-01-19 11:10:00,20.0,8.0,-100.00,NNW,345,4.0,9.0,59,0.00,,,0.00,394.000000,,2013-01-19 18:10:00,
2013-01-19 11:13:00,28.0,8.0,-100.00,SSE,167,3.0,7.0,42,0.00,,,0.00,503.000000,,2013-01-19 18:13:00,
2013-01-19 11:38:00,28.0,8.0,-100.00,SSE,167,3.0,7.0,42,0.00,,,0.00,503.000000,,2013-01-19 18:38:00,
2013-01-19 11:47:00,28.0,8.0,-100.00,SSE,167,3.0,7.0,42,0.00,,,0.00,503.000000,,2013-01-19 18:47:00,
2013-01-19 12:08:00,28.0,8.0,-100.00,SSE,167,3.0,7.0,42,0.00,,,0.00,503.000000,,2013-01-19 19:08:00,
2013-01-19 12:13:00,29.0,7.0,-100.00,SSE,157,4.0,8.0,38,0.00,,,0.00,480.000000,,2013-01-19 19:13:00,
2013-01-19 12:49:00,29.0,7.0,-100.00,SSE,157,4.0,8.0,38,0.00,,,0.00,480.000000,,2013-01-19 19:49:00,
2013-01-19 12:57:00,29.0,7.0,-100.00,SSE,157,4.0,8.0,38,0.00,,,0.00,480.000000,,2013-01-19 19:57:00,
2013-01-19 13:10:00,29.0,7.0,-100.00,SSE,157,4.0,8.0,38,0.00,,,0.00,480.000000,,2013-01-19 20:10:00,
2013-01-19 13:13:00,36.0,9.0,-100.00,WSW,254,1.0,7.0,32,0.00,,,0.00,644.000000,,2013-01-19 20:13:00,
2013-01-19 13:39:00,36.0,9.0,-100.00,WSW,254,1.0,7.0,32,0.00,,,0.00,644.000000,,2013-01-19 20:39:00,
2013-01-19 13:50:00,36.0,9.0,-100.00,WSW,254,1.0,7.0,32,0.00,,,0.00,644.000000,,2013-01-19 20:50:00,
2013-01-19 13:59:00,36.0,9.0,-100.00,WSW,254,1.0,7.0,32,0.00,,,0.00,644.000000,,2013-01-19 20:59:00,
2013-01-19 14:06:00,36.0,9.0,-100.00,WSW,254,1.0,7.0,32,0.00,,,0.00,644.000000,,2013-01-19 21:06:00,
2013-01-19 14:13:00,36.0,10.0,-100.00,SSE,164,4.0,7.0,33,0.00,,,0.00,583.000000,,2013-01-19 21:13:00,
2013-01-19 14:53:00,36.0,10.0,-100.00,SSE,164,4.0,7.0,33,0.00,,,0.00,583.000000,,2013-01-19 21:53:00,
2013-01-19 15:00:00,36.0,10.0,-100.00,SSE,164,4.0,7.0,33,0.00,,,0.00,583.000000,,2013-01-19 22:00:00,
2013-01-19 15:13:00,40.0,10.0,-100.00,ESE,116,1.0,6.0,29,0.00,,,0.00,454.000000,,2013-01-19 22:13:00,
2013-01-19 15:49:00,40.0,10.0,-100.00,ESE,116,1.0,6.0,29,0.00,,,0.00,454.000000,,2013-01-19 22:49:00,
2013-01-19 15:58:00,40.0,10.0,-100.00,ESE,116,1.0,6.0,29,0.00,,,0.00,454.000000,,2013-01-19 22:58:00,
2013-01-19 16:13:00,32.0,8.0,-100.00,SE,135,1.0,6.0,36,0.00,,,0.00,243.000000,,2013-01-19 23:13:00,
2013-01-19 16:35:00,32.0,8.0,-100.00,SE,135,1.0,6.0,36,0.00,,,0.00,243.000000,,2013-01-19 23:35:00,
2013-01-19 16:50:00,32.0,8.0,-100.00,SE,135,1.0,6.0,36,0.00,,,0.00,243.000000,,2013-01-19 23:50:00,
2013-01-19 17:07:00,32.0,8.0,-100.00,SE,135,1.0,6.0,36,0.00,,,0.00,243.000000,,2013-01-20 00:07:00,
2013-01-19 17:13:00,27.0,6.0,-100.00,South,189,0.0,3.0,41,0.00,,,0.00,21.000000,,2013-01-20 00:13:00,
2013-01-19 17:38:00,27.0,6.0,-100.00,South,189,0.0,3.0,41,0.00,,,0.00,21.000000,,2013-01-20 00:38:00,
2013-01-19 17:48:00,27.0,6.0,-100.00,South,189,0.0,3.0,41,0.00,,,0.00,21.000000,,2013-01-20 00:48:00,
2013-01-19 17:56:00,27.0,6.0,-100.00,South,189,0.0,3.0,41,0.00,,,0.00,21.000000,,2013-01-20 00:56:00,
2013-01-19 18:04:00,27.0,6.0,-100.00,South,189,0.0,3.0,41,0.00,,,0.00,21.000000,,2013-01-20 01:04:00,
2013-01-19 18:13:00,26.0,7.0,-100.00,NNW,339,3.0,4.0,44,0.00,,,0.00,1.000000,,2013-01-20 01:13:00,
2013-01-19 18:39:00,26.0,7.0,-100.00,NNW,339,3.0,4.0,44,0.00,,,0.00,1.000000,,2013-01-20 01:39:00,
2013-01-19 18:51:00,26.0,7.0,-100.00,NNW,339,3.0,4.0,44,0.00,,,0.00,1.000000,,2013-01-20 01:51:00,
2013-01-19 19:04:00,26.0,7.0,-100.00,NNW,339,3.0,4.0,44,0.00,,,0.00,1.000000,,2013-01-20 02:04:00,
2013-01-19 19:13:00,24.0,8.0,-100.00,North,356,4.0,5.0,50,0.00,,,0.00,0.000000,,2013-01-20 02:13:00,
2013-01-19 19:38:00,24.0,8.0,-100.00,North,356,4.0,5.0,50,0.00,,,0.00,0.000000,,2013-01-20 02:38:00,
2013-01-19 19:45:00,24.0,8.0,-100.00,North,356,4.0,5.0,50,0.00,,,0.00,0.000000,,2013-01-20 02:45:00,
2013-01-19 19:59:00,24.0,8.0,-100.00,North,356,4.0,5.0,50,0.00,,,0.00,0.000000,,2013-01-20 02:59:00,
2013-01-19 20:08:00,24.0,8.0,-100.00,North,356,4.0,5.0,50,0.00,,,0.00,0.000000,,2013-01-20 03:08:00,
2013-01-19 20:13:00,21.0,7.0,-100.00,NNE,20,1.0,4.0,54,0.00,,,0.00,0.000000,,2013-01-20 03:13:00,
2013-01-19 20:39:00,21.0,7.0,-100.00,NNE,20,1.0,4.0,54,0.00,,,0.00,0.000000,,2013-01-20 03:39:00,
2013-01-19 20:47:00,21.0,7.0,-100.00,NNE,20,1.0,4.0,54,0.00,,,0.00,0.000000,,2013-01-20 03:47:00,
2013-01-19 20:58:00,21.0,7.0,-100.00,NNE,20,1.0,4.0,54,0.00,,,0.00,0.000000,,2013-01-20 03:58:00,
2013-01-19 21:05:00,21.0,7.0,-100.00,NNE,20,1.0,4.0,54,0.00,,,0.00,0.000000,,2013-01-20 04:05:00,
2013-01-19 21:38:00,20.0,7.0,-100.00,SE,146,1.0,3.0,57,0.00,,,0.00,0.000000,,2013-01-20 04:38:00,
2013-01-19 21:45:00,20.0,7.0,-100.00,SE,146,1.0,3.0,57,0.00,,,0.00,0.000000,,2013-01-20 04:45:00,
2013-01-19 21:58:00,20.0,7.0,-100.00,SE,146,1.0,3.0,57,0.00,,,0.00,0.000000,,2013-01-20 04:58:00,
2013-01-19 22:04:00,20.0,7.0,-100.00,SE,146,1.0,3.0,57,0.00,,,0.00,0.000000,,2013-01-20 05:04:00,
2013-01-19 22:12:00,20.0,7.0,-100.00,SE,146,1.0,3.0,57,0.00,,,0.00,0.000000,,2013-01-20 05:12:00,
2013-01-19 22:33:00,18.0,6.0,-100.00,South,186,1.0,4.0,60,0.00,,,0.00,0.000000,,2013-01-20 05:33:00,
2013-01-19 22:43:00,18.0,6.0,-100.00,South,186,1.0,4.0,60,0.00,,,0.00,0.000000,,2013-01-20 05:43:00,
2013-01-19 22:53:00,18.0,6.0,-100.00,South,186,1.0,4.0,60,0.00,,,0.00,0.000000,,2013-01-20 05:53:00,
2013-01-19 23:02:00,18.0,6.0,-100.00,South,186,1.0,4.0,60,0.00,,,0.00,0.000000,,2013-01-20 06:02:00,
2013-01-19 23:12:00,18.0,6.0,-100.00,South,186,1.0,4.0,60,0.00,,,0.00,0.000000,,2013-01-20 06:12:00,
2013-01-19 23:33:00,17.0,8.0,-100.00,NNW,337,1.0,4.0,66,0.00,,,0.00,0.000000,,2013-01-20 06:33:00,
2013-01-19 23:43:00,17.0,8.0,-100.00,NNW,337,1.0,4.0,66,0.00,,,0.00,0.000000,,2013-01-20 06:43:00,
2013-01-19 23:53:00,17.0,8.0,-100.00,NNW,337,1.0,4.0,66,0.00,,,0.00,0.000000,,2013-01-20 06:53:00,